Wind_Speed
69 68 67 66 66 65 64 63 62 64 61 56 56 56 52 50 46 42 40 39 39 36 35 38 36 31 31 32 31 30 27 27 24 22 21 20 17 14 11 9 6 3 1 2 4 8 11 14 16 16 17 18 19 19 20 21 21 21 21 21 22 22 22 21 21 20 20 19 19 18 18 18 18 18 19 19 20 22 23 25 25 25 25 24 23 23
69 69 70 70 68 66 64 63 64 63 63 60 58 57 56 53 50 48 46 45 42 38 37 39 39 35 33 35 34 32 31 28 25 23 23 23 20 17 14 10 7 6 4 2 3 6 9 12 14 15 16 17 18 18 18 20 21 20 20 20 20 21 21 21 21 20 20 19 19 19 18 18 17 17 18 19 19 21 22 23 25 25 25 24 24 23
70 70 72 72 70 68 66 65 65 64 63 62 60 60 60 57 54 53 54 53 47 42 40 39 39 37 37 37 34 34 32 28 26 24 25 26 23 19 15 11 10 9 7 5 3 4 7 10 12 13 14 15 17 17 17 17 19 20 19 19 19 19 20 20 20 20 20 20 19 19 19 18 18 18 18 19 19 20 21 22 23 24 25 25 24 23
72 72 73 73 72 69 68 67 66 66 65 63 62 60 61 59 57 55 55 56 53 47 44 41 38 37 38 37 35 35 32 29 27 26 28 28 26 22 18 15 14 13 9 8 5 3 6 8 10 12 12 13 15 16 16 16 16 18 18 18 18 18 18 19 19 19 19 19 19 19 19 19 19 18 19 19 19 20 20 21 22 23 24 25 25 24
73 74 74 75 73 71 70 69 67 68 67 65 63 61 62 60 58 56 54 56 57 50 47 44 40 39 39 37 36 35 33 31 30 30 30 29 27 25 22 18 17 15 12 10 7 4 5 8 9 11 11 11 12 14 15 14 14 15 16 17 17 17 17 17 18 19 18 19 18 18 18 18 18 18 19 20 20 20 20 21 21 22 23 24 25 25
74 74 76 76 75 73 72 71 69 69 69 68 67 64 64 61 60 61 55 56 59 53 49 47 43 42 43 41 39 37 35 32 32 32 31 30 29 27 24 20 18 17 14 11 9 7 5 7 8 9 10 9 9 11 13 13 12 13 14 15 16 16 16 16 17 17 18 18 17 17 17 18 18 18 19 20 20 21 21 21 22 22 22 23 25 25
74 75 76 75 76 75 74 73 71 71 70 70 69 67 65 63 64 65 59 55 60 57 51 49 47 45 45 45 43 40 38 35 33 33 31 31 31 28 25 23 21 19 17 13 10 9 8 7 8 7 8 8 8 9 11 12 11 11 12 13 14 14 15 15 16 16 16 16 16 16 16 17 17 17 19 20 21 21 22 22 22 22 22 22 24 25
74 76 75 75 76 77 76 75 73 73 73 72 71 69 68 67 64 65 62 57 58 58 55 52 50 49 48 50 47 40 40 40 36 35 34 34 33 31 28 26 24 22 20 17 14 12 11 9 8 7 7 6 6 7 9 11 11 11 10 10 12 13 13 14 14 15 15 15 15 15 15 16 16 17 18 19 20 21 22 22 23 23 22 22 23 24
76 77 77 77 77 77 78 77 75 74 74 73 73 71 71 71 66 64 64 61 58 58 58 54 52 51 50 52 49 42 42 43 40 37 36 36 35 33 30 28 27 26 23 20 17 15 14 12 10 9 7 6 5 6 7 10 11 12 11 9 10 12 13 13 13 13 13 14 14 14 15 15 15 16 17 18 20 20 21 22 22 23 22 22 22 23
77 77 77 78 79 79 79 78 77 76 75 74 74 73 72 73 70 66 64 64 61 59 59 57 53 52 52 53 51 44 44 46 44 41 40 38 37 35 32 29 28 28 25 22 20 18 17 15 12 11 9 7 5 5 6 8 10 12 12 11 9 10 12 13 12 12 12 13 13 13 14 14 15 15 16 17 18 19 20 21 22 22 22 22 22 22
77 75 76 78 80 80 79 78 79 78 77 76 75 75 74 73 72 69 65 64 64 62 61 59 56 55 55 55 53 47 45 48 47 44 42 40 38 36 33 31 30 29 27 24 21 20 19 18 15 13 11 9 7 6 5 6 7 8 11 12 10 10 10 12 12 12 12 12 12 12 12 13 13 14 15 16 16 17 18 19 21 22 22 22 22 21
78 77 77 78 79 79 79 80 80 78 78 77 76 76 75 73 72 70 67 64 65 66 63 61 59 57 56 56 54 49 46 48 48 46 44 41 39 38 35 34 34 32 30 27 24 23 22 20 18 16 14 12 10 8 6 5 4 4 6 9 10 9 9 10 11 11 12 12 12 12 11 11 12 13 13 14 15 16 16 17 19 20 21 22 21 21
81 79 78 77 78 79 81 82 80 79 79 78 77 77 76 75 73 71 69 67 66 67 65 63 62 61 58 56 55 52 48 48 49 47 46 44 41 40 38 37 37 35 33 30 27 26 25 23 21 19 16 15 12 10 8 6 4 3 4 6 7 7 6 6 8 10 10 12 13 12 12 11 12 12 12 13 14 15 15 16 17 18 19 20 21 21
82 81 78 77 78 79 81 81 80 80 79 78 77 77 75 74 73 72 72 71 69 68 67 65 65 66 62 57 56 55 51 50 50 48 46 45 44 42 40 38 37 36 33 31 29 28 26 25 23 21 19 18 15 13 11 9 7 5 4 4 5 6 5 4 5 7 8 10 12 13 12 12 12 13 13 13 13 14 14 15 15 16 17 18 18 19
83 82 80 79 79 79 80 81 81 81 79 79 78 77 76 74 74 74 74 74 73 72 70 67 66 68 66 62 60 59 55 53 52 49 45 45 45 45 43 39 37 35 33 32 31 29 28 27 25 24 22 20 18 16 14 12 11 9 7 4 4 4 5 3 3 3 5 7 10 11 12 12 12 13 14 14 13 13 13 13 13 14 15 15 16 17
84 83 82 80 79 79 80 82 82 81 80 80 80 78 77 76 75 75 75 77 77 75 73 69 68 69 66 64 63 61 58 56 54 51 47 46 47 48 46 42 39 37 35 34 33 31 30 29 28 27 25 23 21 19 17 15 14 13 11 8 5 2 3 3 3 3 2 4 7 9 10 11 12 13 14 14 14 13 12 12 12 11 12 13 14 14
85 84 83 82 80 79 81 82 82 82 82 82 80 79 78 78 76 76 77 78 78 77 75 73 72 71 68 66 65 63 61 58 56 53 50 47 46 47 48 45 42 40 38 37 36 34 32 32 31 30 28 26 24 22 21 20 18 16 14 12 9 6 4 3 3 3 3 2 4 6 8 8 9 10 13 14 15 14 13 12 12 11 11 11 11 12
85 84 84 84 83 81 82 82 82 84 84 81 80 80 80 79 77 77 77 78 79 79 77 76 75 73 71 68 66 64 63 60 57 55 53 50 47 47 48 46 44 42 41 40 39 35 33 33 33 32 31 29 27 26 25 24 22 19 17 16 14 12 9 6 3 3 3 2 3 5 6 6 6 7 10 12 14 15 15 13 12 12 11 10 10 10
85 84 84 85 85 84 83 83 83 83 82 80 81 82 81 80 78 78 78 78 80 80 79 80 79 77 74 71 67 66 64 62 60 57 56 54 50 49 49 47 46 45 44 43 40 37 35 33 34 35 34 33 31 30 30 28 26 23 20 19 18 16 14 10 7 5 4 4 4 5 6 4 2 3 6 9 11 13 14 13 12 12 12 11 10 9
86 86 86 87 87 86 85 83 82 82 80 81 82 81 80 81 79 78 79 79 80 81 81 82 83 81 79 76 70 66 65 64 63 60 58 57 54 51 50 49 49 49 48 45 43 40 38 35 36 37 37 36 35 34 33 31 29 27 24 22 21 19 17 15 12 9 8 7 6 6 4 3 1 1 4 6 8 11 11 11 10 10 10 11 11 10
87 87 87 87 87 87 85 83 82 82 81 81 81 80 81 81 79 78 79 80 80 81 82 83 84 84 84 83 77 71 69 68 66 63 61 60 58 54 52 51 51 51 50 47 45 44 42 40 39 39 40 39 38 37 36 34 31 29 27 25 24 22 20 19 15 13 12 11 10 7 3 4 5 3 5 4 4 6 8 9 8 7 8 9 9 9
88 88 87 87 86 87 86 85 83 83 82 82 82 82 83 82 80 79 80 80 80 81 82 84 85 84 85 86 83 79 77 73 69 67 64 62 61 59 55 53 53 52 50 47 45 44 44 43 41 41 41 41 40 39 37 36 34 32 30 28 28 26 24 22 20 17 16 16 15 10 6 6 7 7 6 4 1 2 3 5 6 6 7 8 8 7
90 90 88 87 88 87 87 86 85 84 83 83 84 84 85 84 82 81 81 81 81 81 82 84 85 85 85 85 85 84 81 76 74 71 68 65 63 62 59 54 53 53 51 47 45 44 45 46 45 44 43 41 40 39 38 38 36 34 33 32 31 29 27 26 25 22 19 19 19 16 11 9 10 10 10 8 4 3 3 2 2 3 4 6 6 6
90 90 88 88 87 86 86 88 88 86 85 86 86 85 85 84 82 81 82 83 82 83 83 85 86 87 86 85 84 84 82 78 77 75 72 69 66 64 62 57 54 55 53 49 48 47 47 48 47 46 44 41 41 41 40 40 39 36 35 35 34 32 30 29 28 26 23 21 22 21 17 14 13 12 12 12 9 6 7 7 6 5 3 3 3 4
90 90 89 88 87 86 88 91 91 89 88 87 85 84 83 82 81 81 81 82 83 84 84 85 85 87 87 86 84 85 84 81 79 78 76 73 70 67 66 60 56 57 55 51 51 50 48 47 48 46 43 41 42 44 44 43 41 38 39 40 37 34 33 32 30 28 26 24 25 25 22 19 16 15 15 14 11 10 10 10 10 10 8 5 3 2
92 91 90 89 89 88 89 91 90 89 88 85 82 81 82 82 82 81 81 82 83 83 83 83 85 87 88 87 86 85 85 83 82 81 79 77 74 70 68 65 59 58 57 53 52 51 47 46 46 46 45 42 42 45 46 46 44 42 42 42 41 38 36 35 33 31 29 27 26 27 26 23 20 18 17 16 15 14 13 12 10 10 9 9 9 8
92 90 90 90 90 90 90 90 89 88 86 84 82 82 82 82 82 82 82 82 81 81 82 83 85 87 88 88 87 86 85 84 84 83 82 80 78 74 72 69 63 60 59 56 53 51 47 45 46 46 48 48 46 45 44 45 46 46 45 44 43 42 40 38 36 34 31 28 28 29 28 26 25 23 20 19 18 18 17 15 13 12 11 11 13 12
91 90 90 90 90 90 90 90 89 89 88 87 85 84 83 83 83 83 82 81 81 81 83 85 87 88 88 88 88 87 86 86 85 85 84 82 81 78 75 72 67 63 61 58 54 52 49 47 49 49 50 52 53 51 48 46 47 47 47 46 46 45 44 42 40 37 34 31 30 30 31 29 27 26 25 22 21 20 19 18 17 15 14 14 15 15
90 90 91 91 91 90 90 89 89 89 89 89 88 87 85 84 84 84 82 81 82 82 84 86 87 89 87 86 87 87 87 88 87 87 86 85 84 82 78 76 71 66 63 59 55 53 53 53 54 54 54 54 56 57 55 52 50 48 48 48 47 47 46 45 43 41 38 36 34 33 33 32 29 28 27 25 23 22 22 20 19 17 16 17 17 17
88 91 93 92 92 91 90 89 88 88 89 90 90 89 87 86 85 84 83 82 83 84 85 86 87 88 86 86 86 87 87 88 88 88 88 87 87 85 82 80 75 68 64 60 57 58 59 59 58 58 57 56 56 57 56 54 53 51 50 50 49 49 49 47 46 44 42 40 38 36 36 35 33 31 29 27 25 24 23 23 22 20 18 18 19 19
87 92 93 93 92 91 90 89 88 88 88 89 90 90 89 88 86 85 84 84 84 84 85 87 87 87 86 86 87 87 87 87 88 90 90 89 90 89 86 83 78 73 69 63 62 64 64 61 59 58 59 58 57 56 55 55 55 55 53 52 52 53 52 50 49 48 46 44 42 40 38 37 36 35 33 31 28 26 25 25 26 25 22 20 20 21
86 89 91 92 93 92 91 90 88 88 88 89 90 91 90 89 87 86 86 85 85 85 85 86 86 86 86 87 87 88 88 88 88 90 91 91 91 91 90 87 81 78 74 68 67 69 68 64 60 58 59 60 59 58 56 55 57 57 56 56 56 55 54 53 52 51 49 47 45 42 40 38 38 38 37 34 31 29 27 27 28 28 27 24 23 24
83 86 88 90 92 92 92 90 89 89 90 90 90 91 91 90 89 88 87 86 85 86 86 85 84 85 87 88 88 89 89 89 89 89 91 92 92 92 92 91 87 84 79 73 72 73 72 68 64 60 60 60 60 60 58 57 57 58 58 58 58 56 53 52 52 52 50 49 47 45 43 41 40 40 38 35 32 30 30 30 31 31 31 29 27 27
78 82 86 87 89 91 91 91 91 91 91 91 90 90 91 91 90 89 88 87 86 86 86 85 84 85 87 88 90 90 90 90 90 89 90 91 93 93 93 94 94 93 88 80 76 76 76 74 70 66 64 62 61 61 61 59 59 59 59 59 59 57 54 52 51 51 49 47 47 46 44 43 43 43 41 38 35 33 33 32 32 32 33 33 30 29
73 78 83 85 87 89 90 91 91 91 91 91 91 90 91 91 91 90 89 88 88 87 87 87 86 86 86 88 90 91 91 91 90 90 90 91 93 94 95 96 97 98 97 90 83 80 80 79 75 73 71 69 67 65 63 62 61 61 62 63 62 59 57 55 54 53 50 47 47 47 45 43 44 45 45 43 40 38 37 34 32 32 33 33 32 31
68 73 78 82 84 86 88 90 91 91 92 92 92 91 91 91 92 91 90 89 88 88 88 88 88 88 88 88 90 91 92 92 91 91 91 91 92 94 97 98 97 99 101 99 93 88 86 85 82 79 77 75 73 71 69 67 65 63 61 64 66 65 61 57 56 56 55 54 53 52 50 49 49 49 48 47 46 44 43 40 36 35 34 34 35 36
64 68 73 78 81 84 86 88 90 91 92 93 93 92 92 92 92 92 92 91 90 90 90 89 89 89 89 89 90 91 92 93 93 92 92 92 93 94 96 98 98 99 101 102 101 97 94 92 90 86 83 80 78 76 74 74 73 68 63 64 67 68 65 61 59 57 56 56 56 55 54 53 52 51 50 50 49 48 47 45 43 39 38 38 38 38
60 64 68 73 78 82 85 87 89 90 92 93 93 93 93 93 93 92 93 93 93 92 92 91 91 91 91 90 91 92 93 93 93 92 92 93 93 94 95 96 98 99 100 101 102 102 100 99 97 95 91 87 84 81 78 78 78 76 74 72 71 71 69 67 64 62 60 59 58 57 56 55 54 53 52 51 51 51 50 49 48 44 43 44 44 43
58 60 64 68 72 77 82 85 87 89 91 92 93 94 94 94 94 94 94 94 95 95 94 93 93 93 93 92 92 92 91 92 92 92 93 94 93 93 94 95 96 98 100 102 102 102 102 101 101 100 98 95 93 89 85 83 81 81 81 80 77 75 73 72 72 70 67 66 66 65 64 61 59 56 54 51 52 52 52 52 51 49 50 50 50 50
58 59 61 64 68 72 77 82 85 87 89 91 92 93 94 95 95 95 95 95 96 96 96 96 95 95 95 95 94 92 91 91 89 87 89 93 94 93 93 94 95 96 97 100 102 103 103 103 102 102 101 100 99 97 94 90 88 86 85 83 83 81 78 77 76 74 70 69 71 71 70 68 64 62 58 55 53 53 54 54 52 53 55 55 54 54
59 58 59 62 65 68 72 76 80 84 87 89 91 92 94 95 95 96 96 96 97 97 97 98 97 98 97 97 96 94 92 90 87 83 85 89 93 94 93 94 95 96 97 98 100 102 104 105 104 104 104 103 103 102 100 98 96 94 91 88 88 87 84 82 81 78 74 73 73 72 70 69 67 66 66 62 58 56 56 56 54 55 59 60 59 58
60 59 58 59 61 64 68 71 76 80 83 86 88 90 93 94 94 95 96 97 97 98 99 99 99 99 99 99 98 97 94 92 91 89 88 88 90 93 96 97 97 97 97 99 100 101 103 105 106 106 106 106 105 104 103 103 102 101 99 97 95 93 90 87 85 83 81 80 78 77 75 72 69 68 69 68 65 62 61 59 56 57 61 63 63 61
60 60 58 58 59 61 64 67 71 75 79 82 84 87 89 91 93 94 96 97 98 99 99 100 101 101 101 101 100 100 98 97 97 96 94 91 89 89 93 97 99 99 99 100 101 102 102 103 105 107 108 108 108 107 106 105 104 103 103 102 101 100 98 95 92 89 88 86 85 83 82 80 77 74 73 73 71 69 67 63 59 59 63 66 65 64
58 61 60 59 58 59 61 65 68 71 74 77 79 82 85 88 90 93 95 96 97 98 99 100 101 101 101 102 102 102 101 100 100 99 98 96 95 93 93 94 96 98 100 101 101 102 103 104 105 107 108 109 110 109 108 107 107 106 105 103 103 102 101 100 98 96 95 93 91 89 87 84 82 81 81 79 78 77 75 71 67 65 66 67 68 69
52 59 62 61 59 59 60 62 65 67 69 71 75 78 81 83 86 89 92 94 96 98 99 100 101 101 101 102 102 103 103 102 101 101 99 97 96 97 98 98 97 97 98 100 101 101 103 105 107 108 108 109 109 110 110 109 109 108 107 106 105 104 102 102 101 100 99 99 98 96 93 90 87 86 86 85 84 83 82 80 77 74 72 71 71 71
43 52 59 62 62 61 60 60 62 64 66 69 71 75 77 80 82 85 87 91 94 97 99 100 101 102 102 102 103 104 104 104 103 103 103 100 97 95 96 98 99 99 99 101 102 102 103 105 107 108 108 108 109 109 109 110 110 110 109 108 108 106 105 103 102 101 101 101 101 101 99 97 95 92 91 90 89 88 87 86 85 82 79 78 76 74
33 42 51 59 63 63 62 61 61 62 65 67 70 73 75 77 79 82 84 87 91 94 97 99 100 102 103 103 104 105 105 105 105 105 105 104 102 99 96 96 97 98 99 100 100 102 105 107 109 110 109 108 108 108 108 108 109 109 110 110 109 109 108 106 105 104 103 102 102 103 103 102 101 100 98 96 94 93 92 91 90 87 85 84 82 81
25 32 40 49 57 63 65 64 63 63 64 66 68 71 73 75 78 80 83 86 89 92 95 98 100 101 103 104 105 106 107 107 107 107 106 105 105 104 102 100 99 99 101 102 101 101 103 106 108 109 109 108 108 108 107 107 108 108 108 109 109 109 109 108 107 107 106 105 104 104 104 104 104 104 103 102 101 100 98 97 95 93 91 90 88 87
17 24 30 38 47 56 62 66 66 66 65 65 67 69 71 74 76 79 81 85 88 91 94 97 99 101 102 104 105 107 108 108 108 109 109 108 107 107 106 105 102 101 102 104 105 106 107 107 107 107 107 108 109 109 108 108 107 107 107 107 108 108 108 109 109 109 108 107 107 106 106 105 105 105 105 106 105 105 105 103 102 99 98 96 95 94
12 16 21 27 35 43 53 61 66 68 69 69 68 69 70 72 74 77 80 83 86 89 92 95 97 100 102 103 105 107 108 109 110 110 111 111 111 110 109 109 108 105 103 104 105 107 109 110 110 108 107 107 107 108 109 110 109 108 108 107 107 107 108 108 109 109 110 110 109 109 108 108 107 107 107 106 107 107 108 108 107 106 104 103 102 101
12 13 16 20 25 30 38 47 55 62 68 71 72 72 72 73 73 75 77 80 83 86 89 92 95 98 100 102 104 106 108 109 111 112 113 113 113 113 112 112 113 112 110 110 109 109 110 110 111 110 109 109 109 108 108 109 110 110 110 110 109 108 108 108 108 109 110 110 111 111 111 110 109 109 108 108 107 107 108 108 108 108 108 108 107 106
Wind_Direction
210 208 208 209 210 210 209 208 208 206 204 204 203 201 201 200 197 196 200 197 196 200 195 191 196 203 213 217 219 219 217 219 214 202 206 220 222 215 210 209 221 213 122 43 68 80 74 66 59 56 55 56 59 59 61 65 68 68 70 72 73 73 73 72 72 72 71 70 69 68 67 65 63 61 60 58 57 58 58 59 59 60 61 62 62 62
211 209 209 209 209 210 209 208 208 207 206 206 204 202 201 200 197 196 197 194 194 199 196 194 198 203 212 217 218 217 215 215 212 205 206 215 218 215 211 207 218 218 172 133 87 84 83 72 63 59 58 58 59 60 61 64 68 69 70 73 74 74 75 74 74 74 73 72 71 70 70 69 66 64 62 60 57 55 56 58 58 58 59 60 61 62
211 210 210 210 209 208 208 208 208 207 206 207 205 204 204 201 199 197 198 196 194 195 194 193 196 203 212 216 218 218 214 212 210 207 209 212 215 214 210 205 213 218 189 162 139 91 91 82 68 64 62 60 60 59 60 63 67 70 72 73 75 76 77 77 76 76 76 75 73 71 70 69 68 66 65 63 60 57 55 57 58 58 58 59 60 62
211 210 210 210 209 207 208 208 208 206 206 206 205 205 205 204 201 199 200 199 195 193 192 190 191 198 209 213 218 220 215 212 211 210 212 213 212 209 204 202 204 205 195 178 171 131 104 94 79 72 68 64 61 58 59 63 66 70 73 75 76 78 79 80 79 78 77 77 76 74 72 70 69 67 67 65 63 60 57 56 58 58 58 59 59 60
211 210 210 210 209 207 207 208 208 206 206 205 204 204 204 204 203 200 201 202 198 194 193 192 191 194 201 207 215 219 216 214 212 211 214 214 212 209 205 204 201 196 195 191 185 176 132 112 97 81 74 68 63 58 57 61 67 69 72 75 78 80 82 83 83 82 80 79 78 76 74 72 70 68 67 67 65 63 60 58 58 58 59 59 59 59
211 210 211 210 208 207 207 207 207 206 206 205 204 205 204 204 203 200 200 201 200 198 197 195 194 195 198 203 210 215 215 214 212 212 214 214 215 213 208 207 203 198 199 199 196 194 166 133 119 96 82 75 68 61 55 57 67 71 70 74 78 82 85 86 86 85 84 82 80 78 77 75 73 70 69 68 67 65 63 60 59 58 59 59 59 59
210 211 211 211 209 208 207 207 207 207 206 206 205 206 205 205 205 202 200 201 201 201 201 199 198 197 198 200 205 211 215 216 214 213 215 216 217 217 211 205 201 201 203 205 205 204 191 158 141 121 93 81 76 69 56 53 65 76 74 73 77 81 85 88 89 88 86 85 83 81 79 77 74 71 69 69 67 66 65 63 61 59 58 59 60 60
210 210 210 210 211 209 208 207 207 207 206 206 206 206 206 206 207 203 200 202 202 202 202 201 199 197 197 199 201 205 211 215 215 214 216 217 219 220 215 205 201 205 208 210 210 210 206 186 164 150 118 95 85 80 67 56 62 76 81 77 76 79 82 87 90 91 89 87 86 83 81 78 75 72 70 69 68 67 66 65 63 62 60 59 60 60
210 210 209 209 210 210 209 208 207 207 207 207 206 206 206 207 208 205 201 202 203 202 201 201 199 197 196 197 200 202 206 212 216 218 220 221 221 221 217 208 205 210 213 213 213 212 212 202 186 173 149 122 103 93 84 73 69 72 79 82 81 79 79 83 87 91 92 89 87 86 84 82 79 75 72 70 69 68 68 68 67 65 64 62 61 62
210 210 209 209 210 210 210 208 207 207 207 207 207 207 207 207 208 206 204 203 204 203 202 202 200 198 196 196 200 203 204 209 217 220 221 222 221 220 218 210 208 214 218 215 214 213 213 210 201 192 179 156 135 116 103 95 84 74 72 76 86 88 81 78 79 83 87 88 87 87 87 86 84 80 76 73 71 69 69 70 70 70 67 65 64 63
211 210 210 210 211 210 210 209 209 207 207 207 207 207 207 208 208 207 206 205 205 206 205 204 202 199 197 196 200 204 202 205 212 216 217 219 218 217 217 210 208 215 220 219 216 214 213 212 209 206 199 184 167 152 132 117 103 84 70 68 80 95 89 81 77 75 76 80 81 82 84 86 87 85 81 77 74 72 71 71 72 73 73 71 68 67
210 210 210 210 211 211 210 211 210 208 208 207 207 208 208 208 208 206 205 205 206 207 207 206 203 201 198 197 200 204 201 201 208 212 214 215 215 214 213 208 207 212 218 221 219 215 212 211 212 213 211 202 189 174 165 150 131 111 82 70 75 92 99 88 76 71 72 73 75 75 76 79 84 85 84 82 79 76 74 72 73 74 76 76 74 72
210 210 210 210 210 211 211 211 210 209 209 208 208 208 208 208 208 206 204 204 204 205 207 206 205 202 199 198 201 204 201 200 205 210 212 213 214 215 213 209 208 211 215 219 220 215 211 210 212 216 217 214 203 189 182 183 179 157 117 89 79 89 110 103 77 67 69 72 73 74 74 76 81 83 84 85 85 82 78 75 73 73 75 78 78 77
210 210 209 210 210 211 211 211 211 210 210 209 208 208 209 208 208 206 205 205 204 204 205 206 206 205 202 200 202 204 202 199 202 208 212 214 215 216 216 212 210 213 215 217 219 214 210 211 213 217 221 222 215 203 195 199 211 208 166 122 94 87 105 123 94 70 67 75 79 81 83 83 84 84 83 82 83 84 82 78 75 74 74 76 79 79
210 209 209 209 210 211 211 211 211 210 210 209 209 208 208 208 208 207 206 206 205 205 204 204 206 206 205 204 203 203 204 200 199 204 208 212 214 214 216 216 213 214 216 217 217 213 210 212 214 217 223 226 222 214 208 209 220 227 214 175 128 93 90 114 134 89 70 79 90 94 96 95 94 92 87 84 81 81 81 80 78 76 75 75 77 79
211 210 209 210 210 211 211 211 211 211 210 210 209 208 208 208 208 208 207 206 206 206 204 203 206 206 205 205 202 200 203 201 199 200 203 207 210 210 213 215 214 214 215 216 217 215 213 212 214 218 223 227 227 223 219 217 222 231 232 218 194 154 105 111 150 154 111 94 105 113 113 111 110 106 101 94 88 83 82 81 79 77 76 75 75 76
210 209 209 210 210 211 212 212 211 211 211 210 209 208 208 208 208 208 208 208 207 207 205 203 205 206 205 205 201 199 201 202 200 199 200 204 205 205 208 212 213 214 214 215 216 216 214 212 212 217 222 226 228 227 226 224 224 228 234 233 225 220 209 169 160 169 165 149 138 135 130 125 121 118 115 109 101 92 84 80 79 77 76 76 75 74
211 209 209 210 210 211 211 211 212 212 211 210 209 208 209 208 207 208 208 208 208 207 206 205 206 206 205 206 203 200 200 201 201 199 199 202 201 200 204 207 208 212 214 215 215 215 215 213 212 215 221 224 226 228 229 228 225 227 232 236 233 230 232 223 203 196 192 191 189 178 165 152 142 132 125 119 113 102 89 80 74 71 72 73 75 75
211 210 210 210 210 211 211 211 211 212 211 211 210 209 209 208 207 208 209 208 208 208 207 206 207 206 205 207 206 203 201 201 201 200 198 201 201 198 202 204 204 209 213 215 215 215 216 216 215 216 219 223 224 226 229 229 227 226 229 234 235 233 236 238 234 231 227 231 238 227 209 194 190 159 141 129 119 109 95 84 75 67 64 63 65 69
211 210 210 210 210 211 211 211 211 212 211 212 212 210 210 210 208 208 209 209 209 208 208 208 209 208 206 207 206 206 206 204 202 201 198 199 202 199 200 204 204 207 213 215 215 215 214 216 220 221 221 223 225 227 231 231 228 226 227 233 236 234 235 237 241 245 243 242 250 254 237 205 214 186 161 150 132 121 109 96 87 76 65 58 53 54
211 211 210 211 211 211 212 212 212 211 211 211 212 211 211 211 210 209 210 211 209 209 209 210 211 210 208 207 207 208 210 208 205 203 199 199 202 201 201 204 205 207 211 214 215 215 215 216 220 223 223 223 225 228 231 233 232 229 228 232 236 237 234 233 237 248 254 253 252 256 241 203 199 175 154 157 158 149 132 113 105 99 81 63 50 46
211 211 211 211 211 212 212 212 212 212 211 211 211 211 211 211 210 209 210 211 210 209 210 211 212 212 211 209 210 211 212 211 208 205 201 201 203 202 202 205 205 206 209 211 214 217 218 218 219 223 225 224 226 228 230 232 234 233 232 233 235 237 237 235 236 243 252 255 254 248 232 221 223 213 189 175 213 235 160 116 114 122 106 74 47 35
211 211 211 211 211 211 212 212 213 212 212 212 211 211 211 210 209 209 210 211 211 210 210 212 213 214 213 211 211 213 213 212 210 208 204 204 206 203 202 204 205 205 207 208 211 216 220 221 221 223 225 225 227 229 230 231 233 236 237 237 236 236 238 238 238 241 246 250 252 246 231 223 226 227 222 207 206 249 254 185 150 147 124 86 46 20
211 211 211 211 212 211 212 213 213 213 212 212 212 211 212 211 210 210 211 211 211 210 210 211 213 215 215 213 212 214 213 212 211 209 207 206 207 204 202 204 203 204 205 206 208 212 216 221 224 224 226 229 230 229 229 230 231 233 238 240 238 236 237 239 240 241 243 245 248 244 233 224 224 227 228 219 212 229 248 240 221 208 184 112 55 13
212 212 211 211 212 211 212 213 214 213 213 213 212 212 212 212 211 212 212 212 212 212 211 211 213 215 216 214 214 214 214 212 211 210 208 207 208 205 203 203 202 202 203 205 207 209 211 216 223 225 226 229 233 232 230 230 230 230 234 238 240 238 236 238 239 240 241 243 243 241 234 227 226 227 225 221 217 226 243 245 229 214 212 219 242 274
212 212 211 212 212 211 212 214 214 214 214 214 213 213 213 213 212 212 213 213 214 214 213 213 214 216 216 214 215 215 214 213 212 212 210 208 209 207 204 203 201 200 202 204 207 208 208 211 218 222 222 224 230 233 233 233 232 231 232 235 238 238 237 238 239 240 241 241 239 237 233 229 229 227 224 222 220 221 229 238 239 233 234 249 261 260
213 213 212 212 212 212 212 213 214 214 215 215 215 214 214 214 213 213 213 214 214 215 215 215 215 217 216 214 215 216 215 214 213 212 211 209 209 209 206 203 201 199 201 204 205 206 207 210 214 218 221 223 226 230 232 234 234 233 233 234 236 237 236 237 239 239 239 237 234 232 230 229 230 229 226 227 228 229 231 236 241 246 251 261 268 265
213 213 214 214 214 213 213 213 213 213 214 214 215 215 215 215 214 214 213 213 214 214 216 216 216 217 217 215 215 216 216 216 214 213 212 209 209 210 208 205 202 199 200 203 204 204 206 211 214 217 221 224 227 227 228 230 232 232 233 234 235 237 236 236 237 238 236 232 231 231 229 229 231 231 231 234 237 240 242 243 246 252 258 264 266 261
213 213 214 215 215 215 214 213 213 213 214 214 215 215 215 215 215 215 214 214 214 214 216 217 217 218 218 216 216 217 217 217 216 214 213 211 209 210 211 209 205 200 200 201 201 202 206 211 214 217 220 224 228 230 229 230 232 234 235 235 236 237 237 236 236 238 236 232 230 231 229 228 230 231 232 236 242 248 250 249 250 256 261 263 262 257
211 213 214 214 215 216 215 214 214 214 214 215 215 216 215 215 216 215 215 214 215 215 216 218 219 219 218 217 216 217 218 218 217 216 215 213 211 211 211 212 209 203 201 201 201 202 205 209 214 217 219 221 225 230 232 232 233 234 234 236 236 237 238 237 236 237 236 233 231 231 230 228 229 230 233 236 242 250 254 252 249 249 252 254 255 254
210 213 213 214 215 215 216 215 214 215 215 216 216 217 216 216 216 216 216 215 215 216 217 218 219 220 219 218 218 218 218 218 218 217 216 215 214 212 212 213 212 207 205 207 209 207 205 207 212 216 218 219 221 224 227 228 230 230 231 232 235 236 237 237 236 235 236 234 232 231 231 231 232 234 236 239 242 247 252 254 251 249 248 247 249 251
209 212 213 214 214 215 215 215 215 215 216 216 217 217 217 217 217 217 217 216 216 217 218 219 220 220 220 219 219 219 219 218 218 218 218 216 216 215 213 212 213 211 211 213 215 212 208 206 209 213 216 218 220 222 223 225 228 229 229 230 232 233 235 236 235 234 234 234 233 233 233 234 236 238 239 241 244 246 250 255 257 256 254 250 248 250
209 211 212 214 215 215 215 215 215 216 216 216 217 217 217 218 218 218 218 217 217 218 219 219 220 222 221 220 220 220 220 220 219 219 219 218 217 217 215 213 212 214 215 216 217 216 213 209 208 209 211 215 218 221 221 223 226 230 231 230 231 231 232 233 233 233 234 235 235 234 234 235 237 239 241 242 244 246 251 257 260 260 259 255 251 250
209 210 211 212 214 215 215 215 215 216 217 217 217 217 218 218 218 218 218 218 218 219 219 219 220 222 222 222 221 221 221 221 220 219 219 219 218 218 217 214 214 215 217 218 217 218 217 214 211 209 209 210 213 216 218 221 224 228 230 231 230 230 230 231 231 231 233 235 236 235 234 236 238 240 242 243 243 244 249 255 258 258 258 258 254 250
208 209 210 211 213 214 215 216 216 216 217 218 217 217 218 218 218 218 219 219 219 219 220 220 221 222 223 223 222 222 222 222 221 220 220 219 219 219 219 217 215 216 219 220 219 219 219 217 215 213 212 211 211 213 216 220 224 226 228 230 230 229 229 230 230 231 231 232 232 233 232 235 238 240 242 244 243 241 243 247 250 253 255 254 251 249
208 209 210 211 212 213 215 216 216 217 218 218 218 218 218 218 218 218 219 219 220 220 220 221 221 223 224 224 224 224 224 223 222 221 221 220 220 220 220 220 218 218 220 221 222 221 221 221 220 218 216 215 215 216 216 218 222 224 226 230 232 231 230 230 230 232 233 233 234 234 234 235 238 240 242 244 243 241 240 240 241 247 251 250 247 248
208 209 209 210 211 212 214 215 216 217 218 219 219 218 218 218 219 219 219 219 219 220 221 221 222 223 224 225 225 225 225 225 224 223 222 222 221 220 220 221 221 220 220 222 224 224 224 225 225 223 221 219 219 219 218 218 220 221 222 226 230 231 231 230 229 230 233 234 235 235 236 237 239 240 241 241 241 241 241 240 240 243 246 245 245 246
209 209 209 210 211 212 213 214 215 217 218 218 219 219 219 219 219 219 219 219 219 220 221 221 222 223 224 226 226 226 226 226 226 225 224 223 223 222 221 222 222 222 222 223 225 226 226 227 227 227 226 224 223 222 220 219 220 220 221 224 227 229 230 230 230 231 233 235 235 235 236 238 240 241 239 238 239 241 243 243 243 244 244 244 245 247
209 209 209 209 210 211 213 214 215 216 218 218 219 220 220 220 219 219 219 219 220 220 221 221 222 223 224 225 226 227 227 228 228 228 227 226 225 224 223 223 223 223 224 225 226 227 228 229 229 229 229 229 228 227 224 223 222 222 223 225 227 229 231 233 234 235 235 237 237 237 238 238 239 240 240 238 239 240 241 242 244 247 248 248 248 249
210 209 209 209 209 211 213 214 215 216 217 218 219 220 221 221 221 220 220 220 220 220 221 222 222 223 223 224 226 226 227 228 229 230 230 229 228 227 226 225 224 224 225 225 227 228 229 230 231 231 231 231 231 231 230 228 227 226 226 227 229 230 231 234 236 236 236 237 238 238 238 238 237 237 238 240 240 239 240 241 243 247 250 250 250 252
210 210 211 210 210 211 213 214 215 216 217 218 219 220 221 221 222 221 221 221 221 221 221 222 223 223 224 224 225 225 226 226 227 229 230 230 230 229 228 227 226 225 225 226 227 228 230 231 231 232 232 232 232 232 233 232 232 231 229 229 231 233 233 234 236 237 236 236 238 238 238 238 237 237 238 240 240 238 238 241 243 247 250 250 251 252
211 211 212 212 211 212 213 215 216 217 218 218 219 220 221 222 222 223 223 222 222 222 222 222 223 224 224 224 225 225 226 225 226 227 229 229 230 230 229 228 227 226 226 226 226 227 229 230 231 232 232 232 233 233 233 234 234 234 233 232 233 234 235 235 237 238 238 238 238 239 240 239 239 239 239 239 239 238 238 241 244 246 248 249 249 250
212 212 212 213 213 213 213 215 217 218 218 219 219 220 222 223 223 224 224 224 224 224 224 224 224 224 225 225 225 225 226 226 226 227 228 228 229 230 230 230 229 228 227 227 227 227 228 229 230 231 232 233 233 233 234 234 234 235 235 235 235 236 236 236 237 238 239 239 239 239 240 241 241 240 240 239 239 239 238 240 243 245 246 245 245 245
213 213 213 214 214 214 215 216 218 219 220 220 220 220 221 223 224 225 225 225 225 225 225 225 226 226 226 226 226 226 226 227 227 228 229 229 229 229 230 231 230 229 229 229 229 229 229 229 230 230 231 232 233 233 234 234 235 236 236 236 236 237 237 237 237 238 238 239 240 239 240 240 240 241 241 240 240 240 240 241 242 244 245 243 242 242
214 214 214 214 215 216 217 218 219 220 221 222 222 222 222 223 224 225 226 227 226 226 226 226 226 227 227 227 228 228 227 227 228 228 228 229 230 230 231 232 232 232 231 231 231 231 231 231 232 231 231 232 232 233 234 234 235 236 237 237 237 237 238 238 238 238 238 239 240 240 240 240 240 240 241 242 241 240 241 242 242 243 243 243 243 244
214 215 216 216 216 217 218 220 220 221 222 223 224 224 223 223 224 225 226 227 228 227 227 227 227 227 228 228 228 229 228 228 229 229 229 229 230 230 231 232 234 234 234 233 233 233 232 233 233 233 233 233 233 233 234 235 235 236 237 238 238 239 239 239 239 239 239 239 240 241 241 241 241 240 241 242 243 242 241 242 242 243 243 243 244 245
212 215 217 218 218 219 220 221 222 222 222 223 225 226 226 225 225 225 226 227 228 229 229 228 228 228 228 229 229 229 229 229 229 229 230 230 231 231 231 231 233 234 234 234 234 234 234 234 234 234 234 234 234 234 235 235 236 236 237 238 239 239 240 240 240 240 240 240 241 242 242 242 242 242 241 242 243 244 244 243 243 243 243 244 244 244
208 212 215 218 220 221 222 223 224 225 225 225 226 227 228 227 227 226 227 227 228 229 229 229 229 229 229 229 230 230 230 230 230 230 230 230 231 231 231 232 234 234 235 234 235 235 236 236 236 235 235 235 235 235 236 236 236 237 237 238 239 239 240 240 241 241 241 241 241 242 242 243 243 243 243 243 243 244 245 245 245 244 244 244 244 244
210 211 214 217 219 221 223 224 226 227 228 229 229 229 230 230 230 229 229 229 229 230 230 230 230 230 230 230 230 231 231 231 231 231 231 231 231 231 231 231 232 234 235 235 236 236 237 238 238 238 237 237 237 236 236 237 237 237 238 238 239 239 240 240 240 241 241 241 242 242 242 243 243 243 244 244 244 244 245 245 246 246 245 245 245 245
227 222 220 220 221 223 224 226 227 228 229 230 231 232 232 232 232 232 232 231 231 232 232 232 231 231 231 231 231 231 232 232 232 232 232 232 231 232 231 231 231 232 233 235 236 237 238 239 240 240 239 239 238 238 238 238 238 238 238 238 239 239 240 240 240 241 241 241 241 242 242 243 243 243 244 244 244 245 245 246 246 246 247 246 246 246
242 238 234 231 228 228 228 228 229 230 231 232 233 233 234 234 234 234 234 234 234 234 234 234 234 233 233 232 232 232 233 233 233 233 233 233 233 232 232 232 232 233 233 234 235 236 237 238 239 240 240 240 240 239 239 239 239 239 239 239 239 239 240 240 240 241 241 241 241 242 242 242 243 244 244 244 245 245 245 246 246 247 247 247 248 248
Height
10898 10905 10911 10915 10919 10923 10930 10940 10946 10951 10957 10963 10969 10976 10983 10989 10995 11000 11004 11007 11009 11009 11010 11012 11014 11015 11016 11018 11021 11023 11026 11027 11029 11031 11033 11034 11035 11036 11037 11037 11037 11038 11038 11038 11038 11038 11037 11036 11035 11035 11034 11033 11033 11032 11031 11030 11029 11029 11028 11027 11027 11026 11026 11026 11025 11025 11024 11024 11023 11022 11021 11020 11020 11019 11018 11017 11016 11015 11014 11012 11011 11009 11008 11006 11005 11004
10893 10900 10903 10907 10912 10919 10928 10935 10940 10947 10954 10959 10965 10971 10977 10981 10986 10992 10997 11001 11004 11005 11006 11009 11012 11014 11015 11016 11018 11020 11023 11025 11028 11030 11032 11033 11034 11035 11036 11037 11037 11038 11038 11038 11038 11039 11038 11038 11037 11036 11035 11035 11034 11033 11033 11032 11031 11030 11030 11029 11028 11028 11027 11027 11027 11026 11026 11025 11025 11024 11023 11022 11022 11021 11020 11019 11018 11017 11016 11015 11013 11012 11010 11008 11007 11006
10888 10893 10896 10901 10907 10915 10923 10928 10934 10943 10950 10954 10961 10967 10971 10975 10979 10984 10988 10993 10997 10999 11002 11006 11010 11013 11014 11015 11017 11018 11021 11024 11026 11029 11030 11031 11033 11034 11035 11036 11037 11037 11038 11038 11038 11039 11039 11039 11038 11037 11037 11036 11035 11035 11034 11033 11032 11032 11031 11030 11030 11029 11029 11028 11028 11028 11027 11027 11027 11026 11025 11024 11023 11023 11022 11021 11020 11019 11018 11017 11015 11014 11012 11011 11009 11008
10879 10883 10889 10895 10902 10910 10916 10922 10928 10936 10943 10949 10956 10962 10966 10971 10976 10981 10985 10988 10992 10994 10999 11004 11009 11012 11013 11015 11015 11016 11020 11022 11024 11027 11028 11029 11031 11033 11034 11035 11036 11037 11037 11038 11038 11039 11039 11040 11039 11038 11038 11037 11037 11036 11035 11035 11034 11033 11032 11032 11031 11030 11030 11030 11029 11029 11029 11028 11028 11027 11027 11026 11025 11024 11023 11022 11021 11021 11020 11019 11017 11016 11015 11013 11011 11010
10869 10875 10882 10888 10896 10905 10910 10916 10923 10930 10936 10943 10949 10953 10959 10965 10971 10977 10980 10983 10988 10992 10997 11002 11007 11009 11011 11013 11013 11014 11018 11020 11022 11024 11025 11027 11029 11031 11032 11033 11035 11036 11037 11038 11038 11039 11039 11040 11040 11039 11039 11038 11038 11037 11036 11036 11035 11034 11034 11033 11032 11032 11031 11031 11030 11030 11030 11030 11029 11029 11028 11027 11026 11026 11025 11024 11023 11022 11021 11020 11019 11018 11017 11015 11014 11012
10862 10869 10875 10882 10891 10898 10903 10909 10916 10923 10930 10936 10941 10944 10951 10958 10963 10968 10973 10977 10983 10989 10994 10999 11004 11007 11008 11011 11012 11013 11015 11018 11019 11021 11023 11026 11027 11029 11031 11032 11034 11035 11036 11037 11038 11038 11039 11040 11040 11040 11040 11039 11039 11038 11038 11037 11037 11036 11035 11034 11034 11033 11033 11032 11032 11031 11031 11030 11030 11030 11029 11029 11028 11027 11026 11025 11025 11024 11023 11022 11022 11020 11019 11018 11016 11014
10857 10863 10870 10879 10885 10890 10896 10903 10909 10917 10923 10929 10935 10940 10946 10952 10955 10962 10969 10974 10980 10985 10990 10995 10999 11003 11006 11009 11010 11011 11013 11016 11017 11019 11021 11024 11026 11028 11030 11031 11033 11033 11035 11036 11037 11038 11039 11039 11040 11040 11040 11040 11039 11039 11038 11038 11038 11037 11037 11036 11035 11035 11034 11034 11033 11033 11032 11032 11031 11031 11030 11030 11029 11029 11028 11027 11026 11026 11025 11024 11024 11023 11022 11020 11019 11017
10849 10856 10864 10872 10878 10884 10890 10896 10902 10909 10916 10923 10930 10935 10940 10946 10951 10959 10966 10971 10976 10981 10985 10989 10992 10996 11001 11004 11007 11008 11010 11013 11015 11017 11019 11021 11024 11026 11028 11029 11031 11032 11033 11035 11036 11037 11038 11039 11040 11040 11041 11041 11040 11040 11039 11039 11039 11039 11038 11037 11037 11036 11036 11035 11034 11034 11033 11033 11032 11032 11031 11031 11031 11030 11029 11029 11028 11027 11027 11026 11026 11025 11024 11023 11021 11020
10840 10848 10856 10863 10870 10877 10883 10890 10898 10904 10911 10917 10924 10929 10935 10941 10947 10955 10961 10967 10972 10976 10980 10984 10988 10992 10995 11000 11004 11005 11007 11010 11012 11014 11017 11019 11022 11024 11026 11028 11029 11030 11031 11033 11035 11036 11037 11038 11039 11039 11040 11041 11041 11040 11040 11040 11040 11040 11039 11039 11038 11038 11037 11036 11036 11035 11034 11034 11034 11033 11033 11032 11032 11032 11031 11030 11029 11029 11028 11028 11027 11027 11026 11025 11024 11023
10835 10843 10851 10857 10862 10867 10875 10885 10892 10897 10904 10911 10917 10923 10928 10934 10941 10949 10957 10963 10968 10972 10976 10980 10984 10989 10992 10996 11000 11001 11003 11006 11009 11011 11014 11016 11019 11022 11024 11026 11027 11028 11030 11031 11033 11035 11036 11037 11038 11038 11039 11040 11041 11041 11041 11041 11041 11041 11040 11040 11040 11039 11038 11037 11037 11037 11036 11035 11035 11035 11034 11034 11033 11033 11033 11032 11031 11030 11030 11029 11029 11028 11027 11026 11026 11025
10832 10840 10846 10850 10855 10862 10872 10879 10884 10890 10897 10904 10911 10916 10922 10929 10937 10945 10953 10959 10964 10968 10972 10976 10981 10984 10988 10992 10996 10998 10999 11002 11004 11007 11009 11013 11016 11019 11022 11024 11025 11026 11028 11030 11032 11033 11034 11036 11037 11037 11038 11039 11040 11041 11041 11041 11041 11041 11041 11041 11041 11040 11039 11039 11038 11038 11037 11037 11037 11036 11036 11035 11035 11034 11034 11033 11032 11032 11031 11031 11030 11029 11029 11028 11027 11027
10826 10832 10838 10843 10851 10859 10866 10870 10877 10887 10892 10898 10905 10911 10918 10925 10932 10940 10949 10954 10958 10962 10967 10972 10976 10980 10984 10988 10991 10994 10996 10997 11000 11003 11006 11009 11012 11015 11018 11020 11022 11024 11025 11027 11029 11031 11033 11034 11035 11036 11037 11038 11040 11041 11041 11041 11041 11041 11041 11041 11041 11041 11040 11040 11039 11039 11038 11038 11038 11038 11038 11037 11036 11036 11035 11035 11034 11033 11033 11032 11032 11031 11030 11030 11029 11028
10816 10823 10831 10838 10844 10851 10856 10862 10872 10881 10886 10893 10901 10907 10913 10920 10927 10935 10942 10946 10950 10956 10962 10967 10972 10975 10979 10984 10987 10990 10992 10993 10996 10999 11003 11006 11009 11011 11013 11016 11018 11021 11023 11024 11027 11029 11031 11033 11034 11035 11036 11037 11038 11040 11040 11041 11041 11041 11041 11041 11041 11041 11041 11041 11040 11040 11039 11039 11039 11039 11039 11038 11038 11037 11037 11036 11036 11035 11034 11034 11034 11033 11032 11032 11031 11030
10808 10817 10826 10832 10838 10844 10850 10858 10867 10874 10881 10889 10896 10902 10910 10916 10923 10929 10934 10939 10944 10951 10957 10962 10966 10969 10974 10979 10981 10985 10988 10989 10992 10996 10999 11002 11005 11007 11009 11012 11015 11017 11020 11022 11024 11027 11029 11031 11032 11033 11034 11035 11037 11039 11039 11040 11040 11041 11041 11041 11041 11042 11041 11041 11041 11041 11040 11040 11040 11040 11040 11039 11039 11038 11038 11038 11037 11036 11035 11035 11035 11034 11034 11034 11033 11032
10802 10810 10818 10825 10831 10837 10844 10852 10859 10866 10874 10882 10888 10896 10904 10910 10916 10922 10927 10932 10937 10943 10950 10955 10959 10962 10969 10973 10976 10980 10983 10985 10988 10992 10996 10999 11001 11004 11006 11009 11012 11015 11017 11019 11022 11025 11027 11028 11030 11031 11032 11034 11036 11037 11038 11039 11040 11040 11041 11041 11041 11041 11041 11041 11041 11041 11041 11041 11041 11040 11040 11040 11039 11039 11038 11038 11038 11037 11036 11036 11035 11035 11035 11035 11035 11034
10795 10804 10812 10818 10824 10831 10837 10843 10851 10859 10867 10873 10880 10889 10897 10903 10909 10915 10919 10923 10929 10936 10943 10949 10952 10956 10962 10967 10970 10975 10978 10981 10984 10988 10993 10996 10998 11001 11004 11006 11009 11011 11014 11016 11019 11022 11024 11026 11027 11029 11030 11032 11034 11035 11036 11037 11038 11039 11040 11041 11041 11041 11041 11041 11041 11041 11041 11041 11041 11041 11040 11040 11039 11038 11038 11038 11038 11038 11037 11037 11036 11036 11036 11036 11036 11035
10786 10796 10806 10813 10819 10826 10830 10836 10845 10851 10856 10863 10874 10884 10891 10897 10903 10907 10911 10917 10924 10930 10937 10943 10945 10949 10955 10960 10964 10969 10972 10976 10980 10984 10989 10993 10995 10997 11000 11003 11005 11007 11010 11012 11015 11018 11021 11023 11025 11026 11028 11030 11032 11033 11034 11035 11037 11038 11039 11040 11041 11040 11040 11040 11040 11040 11040 11041 11041 11041 11040 11040 11039 11039 11038 11038 11038 11038 11038 11038 11037 11037 11037 11037 11037 11036
10781 10791 10799 10804 10810 10816 10821 10830 10838 10842 10849 10860 10870 10876 10882 10889 10896 10900 10904 10911 10918 10924 10932 10936 10939 10944 10950 10954 10958 10962 10966 10971 10975 10979 10985 10990 10992 10994 10997 11000 11002 11004 11006 11008 11011 11015 11017 11020 11022 11024 11025 11027 11029 11030 11031 11032 11034 11036 11038 11039 11039 11040 11040 11040 11040 11040 11040 11040 11040 11040 11040 11040 11040 11040 11039 11038 11038 11038 11038 11038 11038 11038 11038 11037 11037 11037
10777 10786 10792 10797 10803 10808 10814 10822 10828 10836 10848 10857 10862 10868 10876 10883 10889 10894 10899 10906 10912 10919 10925 10929 10932 10938 10944 10948 10952 10956 10960 10964 10969 10974 10980 10986 10989 10991 10994 10996 10998 11001 11003 11005 11009 11012 11014 11016 11019 11020 11022 11024 11025 11027 11028 11029 11032 11034 11036 11037 11038 11039 11039 11039 11039 11040 11040 11040 11040 11040 11040 11040 11040 11040 11040 11040 11039 11039 11038 11039 11039 11039 11039 11038 11038 11037
10770 10777 10782 10788 10795 10800 10807 10816 10825 10834 10844 10849 10855 10865 10872 10877 10883 10890 10894 10900 10906 10912 10918 10921 10925 10931 10936 10941 10946 10950 10954 10958 10964 10969 10975 10981 10985 10988 10991 10993 10994 10997 10999 11002 11005 11008 11010 11013 11015 11017 11018 11020 11022 11023 11025 11027 11029 11032 11033 11034 11036 11037 11038 11038 11039 11039 11040 11040 11040 11040 11040 11040 11041 11041 11040 11040 11040 11039 11039 11039 11039 11039 11039 11039 11039 11038
10763 10769 10776 10782 10790 10797 10805 10814 10822 10828 10835 10841 10850 10859 10865 10871 10880 10886 10889 10894 10900 10906 10911 10914 10918 10923 10928 10932 10938 10943 10947 10953 10959 10965 10971 10976 10980 10983 10986 10988 10990 10992 10995 10998 11002 11004 11006 11009 11011 11013 11015 11016 11019 11020 11022 11024 11026 11029 11031 11032 11033 11034 11036 11037 11037 11038 11039 11040 11040 11040 11041 11041 11041 11041 11041 11041 11040 11040 11039 11039 11040 11040 11040 11039 11039 11039
10755 10761 10770 10778 10785 10792 10800 10808 10813 10819 10827 10834 10841 10848 10854 10862 10871 10878 10882 10889 10895 10900 10904 10907 10910 10915 10919 10925 10931 10936 10941 10947 10954 10960 10966 10971 10974 10978 10981 10983 10985 10988 10991 10994 10997 11001 11003 11005 11007 11009 11011 11013 11015 11017 11019 11021 11023 11025 11027 11029 11030 11032 11034 11035 11036 11037 11038 11039 11039 11041 11041 11041 11041 11041 11041 11041 11041 11040 11040 11040 11040 11040 11040 11040 11039 11039
10746 10754 10763 10772 10777 10785 10795 10802 10806 10813 10821 10826 10832 10838 10844 10852 10861 10868 10874 10880 10886 10892 10897 10900 10904 10907 10911 10919 10926 10930 10934 10941 10948 10954 10960 10965 10968 10972 10976 10978 10981 10983 10986 10989 10994 10997 10999 11001 11003 11005 11007 11009 11011 11013 11016 11017 11019 11021 11023 11025 11027 11030 11031 11032 11034 11035 11037 11038 11038 11039 11040 11040 11039 11039 11040 11040 11040 11041 11040 11040 11040 11040 11040 11040 11040 11040
10742 10749 10758 10766 10772 10783 10791 10794 10797 10805 10811 10816 10822 10830 10838 10848 10857 10863 10867 10872 10878 10884 10888 10892 10897 10900 10904 10913 10919 10923 10928 10935 10941 10947 10953 10958 10963 10966 10970 10973 10976 10978 10981 10985 10990 10992 10993 10996 10999 11001 11004 11007 11008 11009 11011 11013 11015 11018 11019 11021 11024 11027 11028 11029 11031 11033 11035 11036 11036 11037 11038 11038 11038 11038 11038 11039 11039 11040 11040 11039 11039 11039 11039 11040 11040 11040
10737 10743 10753 10760 10767 10776 10780 10782 10788 10797 10803 10809 10819 10829 10837 10845 10853 10857 10863 10868 10873 10877 10881 10886 10891 10892 10897 10906 10912 10915 10922 10928 10935 10940 10946 10952 10956 10960 10964 10968 10970 10973 10977 10981 10984 10985 10988 10992 10995 10998 11001 11003 11003 11005 11006 11009 11012 11014 11015 11017 11020 11023 11025 11026 11028 11030 11031 11032 11033 11034 11035 11036 11036 11036 11036 11037 11037 11038 11038 11038 11038 11038 11038 11039 11039 11040
10728 10736 10746 10752 10759 10767 10772 10776 10785 10794 10801 10811 10821 10828 10833 10838 10845 10850 10856 10861 10866 10872 10878 10884 10886 10885 10890 10899 10904 10908 10915 10922 10927 10933 10939 10945 10950 10954 10958 10961 10965 10969 10972 10976 10979 10980 10983 10987 10989 10993 10996 10998 10999 11000 11002 11005 11008 11010 11012 11014 11017 11019 11021 11022 11024 11026 11028 11029 11030 11031 11033 11034 11034 11035 11035 11035 11035 11035 11036 11037 11037 11037 11038 11038 11038 11039
10723 10732 10740 10746 10752 10758 10764 10771 10781 10791 10801 10809 10816 10821 10825 10831 10837 10842 10848 10854 10862 10869 10873 10876 10878 10877 10882 10891 10897 10902 10909 10914 10919 10926 10932 10938 10944 10948 10951 10955 10959 10963 10968 10971 10974 10976 10980 10982 10985 10988 10990 10992 10994 10996 10999 11002 11004 11006 11008 11010 11013 11014 11016 11018 11020 11022 11025 11027 11028 11028 11029 11030 11031 11032 11032 11032 11032 11033 11034 11035 11035 11036 11037 11037 11038 11038
10721 10729 10736 10741 10747 10752 10758 10766 10775 10783 10791 10799 10805 10811 10817 10823 10828 10834 10840 10847 10855 10860 10861 10864 10867 10868 10874 10885 10891 10896 10901 10906 10912 10919 10924 10931 10937 10941 10945 10950 10954 10958 10963 10967 10969 10972 10975 10977 10978 10981 10983 10985 10987 10989 10994 10996 10998 11001 11003 11006 11008 11009 11011 11014 11016 11019 11021 11023 11024 11024 11025 11027 11028 11029 11030 11030 11030 11031 11032 11033 11034 11034 11035 11036 11036 11037
10715 10722 10728 10735 10741 10747 10755 10763 10770 10777 10784 10790 10796 10802 10808 10814 10819 10826 10834 10841 10846 10849 10851 10855 10858 10860 10869 10879 10886 10890 10894 10899 10905 10911 10917 10925 10930 10935 10939 10944 10949 10955 10959 10962 10965 10967 10967 10968 10971 10975 10977 10979 10980 10983 10988 10990 10993 10996 10998 11000 11003 11005 11006 11009 11012 11015 11017 11019 11020 11021 11022 11023 11024 11026 11027 11027 11028 11028 11030 11031 11031 11032 11033 11034 11034 11035
10706 10711 10717 10725 10733 10741 10750 10758 10766 10773 10779 10784 10789 10794 10801 10807 10813 10820 10827 10833 10837 10839 10842 10847 10851 10855 10864 10873 10878 10882 10887 10892 10898 10904 10911 10917 10922 10927 10932 10937 10945 10952 10957 10960 10960 10957 10957 10961 10965 10969 10972 10975 10977 10979 10983 10986 10990 10992 10993 10995 10998 10999 11001 11003 11007 11010 11012 11014 11016 11017 11018 11020 11021 11022 11024 11024 11025 11026 11027 11028 11029 11030 11030 11031 11032 11033
10696 10700 10709 10718 10725 10734 10743 10752 10760 10768 10773 10779 10783 10789 10795 10801 10807 10813 10818 10823 10828 10832 10836 10839 10844 10850 10858 10865 10871 10875 10879 10884 10890 10896 10902 10909 10914 10920 10925 10932 10941 10950 10953 10954 10951 10947 10950 10956 10959 10963 10967 10971 10973 10974 10975 10979 10983 10985 10986 10988 10991 10992 10994 10998 11002 11004 11006 11009 11011 11013 11015 11016 11018 11019 11020 11021 11022 11023 11024 11025 11026 11027 11027 11028 11029 11030
10687 10694 10704 10712 10719 10727 10735 10744 10754 10761 10767 10772 10776 10781 10788 10794 10800 10805 10810 10816 10821 10825 10828 10832 10839 10845 10851 10858 10863 10866 10871 10876 10881 10887 10894 10900 10905 10911 10918 10926 10936 10941 10940 10939 10937 10939 10945 10950 10953 10957 10961 10965 10968 10968 10969 10972 10975 10977 10980 10982 10984 10986 10989 10992 10996 10999 11002 11004 11006 11009 11011 11013 11015 11016 11017 11018 11019 11020 11021 11021 11022 11023 11024 11025 11026 11026
10681 10689 10698 10706 10713 10720 10727 10736 10745 10752 10756 10761 10767 10773 10780 10787 10793 10798 10804 10810 10815 10818 10822 10829 10835 10839 10843 10848 10853 10857 10862 10867 10872 10878 10885 10891 10897 10903 10909 10918 10926 10928 10926 10924 10926 10931 10937 10943 10946 10950 10954 10958 10961 10963 10965 10967 10969 10971 10974 10976 10978 10982 10985 10988 10992 10994 10997 10999 11002 11005 11007 11009 11011 11012 11013 11014 11015 11016 11017 11017 11018 11019 11020 11022 11023 11023
10676 10683 10690 10698 10705 10712 10720 10729 10736 10742 10746 10752 10760 10767 10773 10779 10785 10791 10797 10802 10808 10812 10817 10823 10827 10829 10833 10838 10843 10847 10852 10858 10864 10871 10876 10883 10889 10894 10901 10908 10914 10916 10915 10916 10918 10923 10928 10934 10939 10944 10947 10951 10955 10957 10960 10962 10963 10966 10969 10971 10974 10977 10981 10984 10987 10990 10993 10996 10999 11001 11004 11006 11006 11007 11008 11010 11011 11012 11013 11014 11015 11015 11016 11017 11018 11019
10671 10677 10683 10691 10698 10706 10714 10721 10728 10733 10739 10745 10752 10759 10765 10771 10777 10783 10789 10795 10800 10805 10810 10815 10818 10820 10824 10828 10833 10839 10844 10849 10856 10862 10868 10874 10880 10885 10891 10897 10903 10906 10908 10909 10912 10916 10920 10926 10931 10936 10940 10944 10947 10950 10953 10956 10959 10961 10963 10965 10969 10972 10975 10978 10981 10984 10987 10990 10993 10996 11000 11001 11000 11000 11003 11004 11005 11007 11008 11009 11010 11011 11012 11013 11014 11015
10666 10671 10678 10685 10692 10699 10706 10713 10720 10726 10732 10737 10743 10750 10756 10762 10769 10775 10781 10787 10793 10798 10802 10806 10810 10812 10815 10820 10825 10831 10835 10840 10847 10853 10859 10864 10869 10875 10881 10886 10893 10898 10900 10902 10906 10909 10913 10917 10923 10928 10932 10936 10939 10942 10946 10949 10953 10957 10961 10962 10964 10966 10969 10972 10975 10977 10980 10983 10986 10989 10993 10993 10993 10994 10997 10999 11000 11001 11002 11004 11005 11006 11008 11009 11010 11010
10661 10666 10672 10679 10685 10691 10697 10704 10712 10718 10723 10728 10734 10741 10747 10753 10760 10766 10772 10779 10784 10789 10794 10798 10802 10805 10807 10812 10817 10821 10825 10831 10837 10844 10851 10855 10860 10866 10872 10877 10884 10890 10893 10896 10899 10903 10907 10910 10914 10918 10924 10928 10932 10935 10939 10942 10946 10953 10956 10955 10955 10959 10963 10966 10968 10970 10973 10975 10979 10982 10984 10985 10986 10988 10990 10992 10994 10996 10997 10999 11000 11000 11002 11004 11004 11004
10657 10662 10668 10673 10678 10683 10689 10696 10703 10708 10714 10719 10726 10732 10739 10744 10750 10757 10763 10769 10774 10779 10783 10788 10793 10796 10799 10803 10808 10812 10817 10822 10830 10837 10842 10847 10852 10858 10864 10870 10876 10882 10886 10889 10892 10896 10900 10903 10906 10910 10915 10919 10923 10926 10930 10934 10939 10944 10945 10944 10946 10952 10956 10959 10961 10963 10965 10969 10972 10974 10976 10978 10980 10982 10984 10986 10989 10990 10992 10992 10993 10994 10995 10996 10997 10998
10652 10658 10662 10667 10672 10678 10683 10688 10694 10700 10705 10712 10718 10724 10729 10735 10741 10747 10753 10758 10764 10769 10774 10779 10783 10787 10791 10794 10798 10805 10811 10818 10825 10830 10834 10839 10845 10850 10856 10862 10867 10872 10877 10881 10885 10888 10891 10895 10898 10901 10906 10910 10913 10917 10922 10925 10930 10933 10935 10938 10941 10945 10949 10952 10953 10956 10960 10963 10964 10965 10966 10969 10973 10975 10978 10981 10983 10985 10985 10985 10987 10988 10988 10989 10990 10991
10648 10653 10657 10661 10667 10671 10676 10681 10686 10692 10698 10704 10710 10715 10721 10727 10732 10738 10742 10747 10754 10760 10764 10769 10773 10777 10781 10785 10790 10798 10806 10813 10819 10823 10827 10833 10839 10843 10849 10855 10859 10863 10868 10871 10875 10879 10881 10885 10888 10892 10897 10900 10903 10908 10912 10916 10920 10923 10927 10931 10933 10935 10940 10944 10945 10949 10954 10955 10954 10954 10957 10961 10966 10969 10972 10975 10977 10978 10978 10979 10981 10982 10981 10983 10985 10985
10643 10648 10652 10657 10661 10666 10670 10675 10680 10685 10690 10696 10702 10707 10712 10717 10723 10728 10734 10740 10746 10750 10755 10759 10763 10767 10772 10776 10782 10790 10796 10801 10807 10811 10815 10821 10826 10831 10838 10842 10845 10851 10856 10859 10863 10867 10869 10872 10876 10880 10885 10889 10893 10898 10902 10906 10909 10913 10917 10922 10924 10926 10931 10935 10937 10940 10944 10945 10944 10945 10949 10954 10959 10963 10965 10967 10970 10972 10972 10973 10975 10976 10976 10977 10979 10980
10639 10644 10649 10653 10658 10662 10666 10669 10673 10677 10682 10688 10694 10699 10704 10709 10715 10721 10727 10732 10737 10741 10745 10749 10753 10757 10762 10767 10773 10780 10785 10789 10794 10797 10801 10806 10810 10816 10822 10825 10829 10837 10842 10844 10849 10853 10855 10858 10862 10866 10871 10876 10880 10885 10890 10894 10897 10901 10906 10911 10914 10917 10921 10926 10928 10931 10933 10935 10936 10937 10941 10945 10950 10955 10957 10958 10961 10964 10965 10967 10969 10970 10970 10970 10973 10975
10635 10640 10645 10649 10653 10657 10661 10663 10666 10671 10676 10681 10687 10692 10697 10702 10708 10713 10717 10723 10728 10733 10736 10740 10744 10748 10753 10758 10764 10770 10774 10779 10784 10787 10791 10795 10799 10804 10808 10812 10818 10826 10829 10831 10835 10839 10842 10846 10849 10852 10857 10862 10867 10872 10877 10881 10885 10889 10893 10898 10903 10906 10911 10916 10919 10920 10922 10924 10926 10929 10932 10936 10942 10946 10948 10950 10953 10955 10957 10960 10963 10964 10964 10963 10965 10967
10631 10636 10641 10645 10649 10653 10656 10659 10662 10666 10671 10675 10680 10685 10690 10695 10700 10704 10708 10713 10719 10723 10727 10732 10736 10740 10745 10750 10755 10759 10764 10769 10774 10778 10780 10783 10788 10794 10797 10800 10807 10814 10818 10822 10826 10830 10833 10834 10835 10838 10843 10848 10853 10859 10864 10868 10872 10877 10881 10886 10890 10895 10899 10904 10908 10910 10911 10913 10916 10919 10922 10927 10932 10935 10936 10939 10943 10945 10948 10952 10955 10957 10958 10957 10957 10959
10628 10632 10636 10640 10644 10648 10652 10654 10657 10661 10666 10670 10673 10677 10681 10686 10691 10694 10698 10703 10708 10712 10717 10721 10726 10731 10736 10740 10744 10749 10754 10759 10763 10766 10769 10772 10779 10785 10788 10791 10796 10802 10807 10811 10815 10820 10823 10823 10824 10828 10833 10837 10841 10847 10852 10856 10861 10865 10869 10873 10877 10882 10886 10891 10895 10899 10901 10902 10904 10908 10912 10916 10922 10924 10925 10928 10931 10935 10938 10941 10944 10947 10950 10950 10950 10951
10624 10627 10632 10636 10640 10643 10647 10649 10653 10656 10660 10663 10666 10669 10673 10678 10682 10685 10689 10693 10697 10701 10705 10710 10715 10719 10724 10728 10732 10736 10742 10748 10752 10755 10758 10763 10769 10775 10778 10782 10786 10790 10794 10798 10802 10806 10809 10810 10811 10817 10822 10827 10832 10837 10841 10845 10849 10853 10857 10861 10865 10870 10875 10879 10883 10887 10890 10891 10893 10896 10900 10905 10909 10913 10915 10917 10919 10923 10927 10930 10933 10937 10940 10942 10944 10944
10620 10624 10628 10631 10635 10639 10642 10644 10647 10650 10653 10656 10659 10661 10665 10669 10673 10676 10680 10683 10686 10690 10694 10698 10703 10708 10712 10716 10720 10724 10729 10735 10740 10744 10748 10754 10760 10765 10768 10771 10774 10778 10781 10785 10789 10793 10795 10796 10798 10804 10811 10816 10822 10826 10830 10834 10838 10842 10846 10850 10853 10858 10862 10867 10871 10875 10878 10881 10883 10885 10889 10893 10897 10901 10905 10908 10909 10911 10914 10917 10922 10927 10930 10932 10935 10936
10618 10621 10623 10626 10630 10634 10637 10640 10643 10645 10648 10650 10653 10655 10658 10661 10664 10667 10670 10673 10676 10679 10683 10687 10692 10696 10701 10705 10708 10712 10717 10722 10727 10731 10736 10742 10748 10752 10756 10761 10765 10767 10770 10773 10776 10779 10781 10783 10786 10792 10800 10805 10810 10814 10819 10823 10827 10831 10835 10838 10842 10845 10849 10854 10858 10862 10865 10869 10872 10874 10877 10880 10884 10888 10892 10896 10900 10901 10902 10904 10909 10914 10918 10921 10923 10925
10617 10619 10620 10622 10625 10628 10631 10634 10637 10640 10642 10645 10647 10649 10651 10654 10657 10659 10662 10665 10667 10670 10673 10677 10681 10685 10689 10693 10697 10701 10705 10709 10714 10719 10723 10729 10734 10738 10743 10748 10753 10756 10758 10761 10764 10767 10769 10771 10774 10781 10788 10794 10798 10802 10807 10811 10815 10819 10823 10826 10829 10833 10836 10840 10844 10848 10852 10855 10859 10862 10865 10868 10871 10874 10878 10882 10886 10889 10891 10893 10896 10900 10905 10908 10911 10914
10616 10618 10619 10621 10622 10624 10626 10628 10630 10633 10636 10638 10640 10642 10644 10646 10649 10652 10654 10657 10659 10662 10665 10668 10671 10674 10678 10682 10686 10689 10693 10697 10701 10706 10710 10715 10720 10724 10728 10734 10738 10741 10744 10748 10751 10754 10757 10759 10763 10769 10776 10782 10786 10790 10794 10798 10802 10805 10809 10813 10816 10820 10823 10827 10831 10834 10838 10841 10845 10849 10852 10855 10858 10861 10865 10868 10872 10875 10878 10880 10883 10887 10891 10894 10898 10901
10614 10616 10617 10618 10620 10621 10622 10623 10625 10627 10629 10631 10633 10634 10636 10638 10640 10643 10645 10648 10650 10653 10655 10658 10661 10664 10667 10671 10674 10678 10681 10684 10688 10693 10697 10701 10705 10710 10715 10720 10724 10727 10731 10733 10736 10740 10743 10746 10750 10756 10761 10767 10772 10776 10781 10784 10788 10792 10796 10799 10803 10807 10810 10814 10817 10821 10824 10827 10831 10835 10838 10842 10845 10849 10852 10855 10858 10862 10865 10867 10870 10874 10877 10880 10883 10887